Location: Unspecified
(0.0000°N, 0.0000°E)
Time: 19:42:44
(UTC+00:00)

KINEIS-1B - Visible Passes

Search period start: 14 January 2025 00:00
Search period end: 24 January 2025 00:00
Orbit: 631 x 634 km, 98.0° (Epoch: 14 January)

Date Brightness Start Highest point End Pass type
(mag) Time Alt. Az. Time Alt. Az. Time Alt. Az.
14 Jan ? 19:11:12 10° SSW 19:15:07 33° WSW 19:19:02 10° NW visible
15 Jan ? 19:33:25 10° SW 19:36:15 17° WSW 19:39:04 10° WNW visible
17 Jan ? 18:38:03 10° SSE 18:42:26 82° ENE 18:46:48 10° N visible
18 Jan ? 18:59:20 10° S 19:03:34 48° WSW 19:07:46 10° NNW visible
19 Jan ? 19:21:08 10° SSW 19:24:41 24° WSW 19:28:13 10° NW visible
20 Jan ? 19:43:57 10° SW 19:45:47 12° WSW 19:47:37 10° WNW visible
22 Jan ? 18:47:34 10° S 18:51:56 73° WSW 18:56:18 10° NNW visible
23 Jan ? 19:09:02 10° SSW 19:13:02 35° WSW 19:17:02 10° NW visible
